Flag for Norway Weather past 2 weeks in Elverum, Norway

Now
42 °F

Quite cool.


Feels Like: 40 °F
Forecast: 22 / 42 °F
Wind: 3 mph from Northwest

Location: Haugedalshogda

Current Time: Mar 31, 2015 at 7:24:10 PM

Latest Report: Mar 31, 2015 at 6:00 PM


Visibility: N/A

Pressure: 29.03 "Hg

Humidity: 31%

Dew point: 13 °F

Location of ElverumLocation

Historic Weather in Elverum — Graph

°F

Elverum temperature yesterday

Maximum temperature yesterday: 43 °F (at 5:00 PM)
Minimum temperature yesterday: 30 °F (at 7:00 AM)
Average temperature yesterday: 35 °F

Past Weeks' High & Low Weather Summary

 TemperatureHumidityPressure
High52 °F (Mar 23, 3:00 PM)96% (Mar 18, 5:00 AM)30.85 "Hg (Mar 18, 5:00 AM)
Low18 °F (Mar 21, 10:00 PM)28% (Mar 31, 4:00 PM)29.00 "Hg (Mar 31, 11:00 AM)
Average32 °F79%29.93 "Hg
* Reported Mar 16 5:00 PM — Mar 31 6:00 PM, Elverum, Weather by CustomWeather, © 2015

Note: Actual official high and low records may vary slightly from our data, if they occured in-between our weather recording intervals... More about our weather records

Advertising

Elverum weather history for previous 24 hours

 ConditionsComfort  
Time TempWeatherWind HumidityBarometerVisibility
6:00 PM
Tue, Mar 31
42 °FQuite cool.3 mph31%29.03 "HgN/A
5:00 PM42 °FQuite cool.3 mph31%29.00 "HgN/A
4:00 PM43 °FQuite cool.3 mph28%29.00 "HgN/A
3:00 PM43 °FQuite cool.1 mph34%29.00 "HgN/A
2:00 PM42 °FQuite cool.2 mph35%29.00 "HgN/A
1:00 PM40 °FChilly.3 mph37%29.00 "HgN/A
12:00 PM37 °FChilly.1 mph51%29.00 "HgN/A
11:00 AM32 °FChilly.1 mph67%29.00 "HgN/A
10:00 AM27 °FChilly.1 mph76%29.03 "HgN/A
9:00 AM22 °FCold.2 mph87%29.03 "HgN/A
8:00 AM19 °FCold.1 mph91%29.03 "HgN/A
7:00 AM19 °FCold.1 mph92%29.06 "HgN/A
6:00 AM22 °FCold.3 mph94%29.06 "HgN/A
4:00 AM22 °FCold.1 mph94%29.09 "HgN/A
3:00 AM22 °FCold.1 mph95%29.09 "HgN/A
2:00 AM24 °FCold.1 mph94%29.09 "HgN/A
1:00 AM25 °FChilly.No wind93%29.12 "HgN/A
12:00 AM27 °FChilly.1 mph92%29.12 "HgN/A
11:00 PM
Mon, Mar 30
31 °FChilly.1 mph88%29.12 "HgN/A
10:00 PM35 °FChilly.2 mph78%29.12 "HgN/A
9:00 PM36 °FChilly.2 mph75%29.15 "HgN/A
8:00 PM35 °FChilly.No wind81%29.15 "HgN/A
7:00 PM39 °FChilly.1 mph67%29.12 "HgN/A
Weather by CustomWeather, © 2015

See weather overviewHow to use our weather pages